Погода в Музыковке

Украина / Херсонская область     46°44′52″N   32°34′09″E
темп.,
°C
ветер,
м/с
пор.,
м/с
влажн.,
%
обл.,
%
осадки,
мм/ч
давл.,
гПа
погр.,
м
14 мая, пт
пт1400:00+12вюв3470100 0.0 100978
03:00+11ююв128084 0.0 100925
06:00+11ююв11869 0.0 100816
09:00+16ю4656100 0.0 1009523
12:00+20ююз6750100 0.0 1010934
15:00+21юз685082 0.0 1009963
18:00+19юз685538 0.0 1010711
21:00+14ю49766 0.0 1010176
15 мая, сб
сб1500:00+13ююз411768 0.0 1011231
03:00+12ю498583 0.0 1012181
06:00+13ююз38903 0.0 1012182
09:00+19юз576198 0.0 1013593
12:00+22юз564898 0.0 10131276
15:00+23зюз56440 0.0 10131402
18:00+21зюз4552100 0.0 1013596
21:00+16з226735 0.0 101324
16 мая, вс
вс1600:00+14ссз11723 0.0 101311
03:00+13ссв3373100 0.0 101236
06:00+13св3474100 0.0 101272
09:00+19св4555100 0.0 1012355
12:00+24всв554274 0.0 10111460
15:00+26всв4437100 0.0 10092081
18:00+23св4550100 0.0 1008263
21:00+20с3453100 0.0 100756
17 мая, пн
пн1700:00+17с1175100 0.9 100519
03:00+16сз4695100 7.5 1005145
06:00+16ссз61096100 1.4 1005370
09:00+18сз677937 1.4 1006581
12:00+22зсз56618 0.0 10061198
15:00+24з665130 0.1 10061727
18:00+20зюз786347 0.4 1007552
21:00+16зюз488296 0.4 1008184
18 мая, вт
вт1800:00+15ююз36821 0.0 1009123
03:00+14ююз36910 0.0 1008131
06:00+14ю259463 0.4 1008122
09:00+19ю686999 0.4 1009501
12:00+22ююз7106278 0.3 1009901
15:00+22юз9125845 0.4 10091151
18:00+21юз7116356 0.0 1009719
21:00+18ююз51073100 0.0 1010274